Location: Tamazert
(32.6352°N, 5.2072°W)
Time: 21:09:13
(UTC+00:00)

deb Explorer IX - Pass Details

Date: 10 October 2022
Orbit: 533 x 1057 km, 38.8° (Epoch: 06 December)

Event Time Altitude Azimuth Distance (km) Brightness Sun altitude
Exits shadow 03:25:13 13° 70° (ENE) 1,706 ? -37.4°
Drops below altitude 10° 03:25:47 10° 69° (ENE) 1,928 ? -37.3°
Sets 03:28:13 0° 68° (ENE) 2,903 ? -36.8°
